Weather History for Land O' Lakes, WI

Change the Weather History Date:

Thursday, August 8, 2013

  Actual Average (KEGV) Record (KEGV)
Temperature  
Mean Temperature 54 °F -  
Max Temperature 71 °F 75 °F 91 °F (2001)
Min Temperature 38 °F 55 °F 40 °F (2013)
Degree Days  
Heating Degree Days 10    
Growing Degree Days 4 (Base 50)    
Moisture  
Dew Point 50 °F    
Average Humidity 84    
Maximum Humidity 100    
Minimum Humidity 44    
Precipitation  
Precipitation 0.00 in - - ()
Sea Level Pressure  
Sea Level Pressure 30.04 in    
Wind  
Wind Speed 1 mph (West)    
Max Wind Speed 10 mph    
Max Gust Speed 16 mph    
Visibility 8 miles    
Events Fog , Rain    
Averages and records for this station are not official NWS values.
T = Trace of Precipitation, MM = Missing Value Source: NWS Daily Summary

Daily Weather History Graph

Daily Weather History Graph

Search for Another Location

Airport:

Trip Planner

Search our weather history database for the weather conditions in past years. The results will help you decide how hot, cold, wet, or windy it might be!

Date:

Astronomy

Aug. 08, 2013 Rise Set
Actual Time 5:47 AM CDT 8:16 PM CDT
Civil Twilight 5:13 AM CDT 8:49 PM CDT
Nautical Twilight 4:31 AM CDT 9:31 PM CDT
Astronomical Twilight 3:43 AM CDT 10:19 PM CDT
Moon 7:44 AM CDT (8/8) 8:43 PM CDT (8/8)
Length of Visible Light 15h 35m
Length of Day
14h 28m
Waxing Crescent, 3% of the Moon is Illuminated
Aug 8
Waxing Crescent
Aug 14
First Quarter
Aug 20
Full
Aug 28
Last Quarter
Sep 5
New

Hourly Weather History & Observations

Time (CDT) Temp. Dew Point Humidity Pressure Visibility Wind Dir Wind Speed Gust Speed Precip Events Conditions
12:15 AM 44.1 °F 43.3 °F 97% 30.05 in 10.0 mi Calm Calm - N/A   Clear
12:35 AM 43.7 °F 43.2 °F 98% 30.04 in 5.0 mi Calm Calm - N/A   Clear
12:55 AM 43.2 °F 42.6 °F 98% 30.03 in 10.0 mi Calm Calm - N/A   Clear
1:15 AM 42.8 °F 42.4 °F 99% 30.04 in 4.0 mi Calm Calm - N/A   Clear
1:35 AM 42.6 °F 42.1 °F 98% 30.04 in 2.5 mi Calm Calm - N/A   Clear
1:55 AM 42.3 °F 41.9 °F 99% 30.05 in 4.0 mi Calm Calm - N/A   Clear
2:15 AM 41.4 °F 41.0 °F 99% 30.05 in 1.5 mi Calm Calm - N/A   Mist
2:35 AM 41.4 °F 41.2 °F 99% 30.06 in 2.5 mi Calm Calm - N/A   Clear
2:55 AM 40.5 °F 40.3 °F 99% 30.06 in 2.5 mi Calm Calm - N/A   Clear
3:15 AM 41.0 °F 40.8 °F 99% 30.06 in 10.0 mi Calm Calm - N/A   Clear
3:35 AM 40.1 °F 39.7 °F 99% 30.06 in 7.0 mi Calm Calm - N/A   Clear
3:55 AM 40.1 °F 39.9 °F 99% 30.06 in 0.5 mi Calm Calm - N/A Fog Fog
4:15 AM 40.3 °F 40.1 °F 99% 30.05 in 5.0 mi Calm Calm - N/A   Clear
4:35 AM 39.2 °F 39.0 °F 99% 30.05 in 1.0 mi Calm Calm - N/A   Mist
4:55 AM 39.7 °F 39.6 °F 99% 30.05 in 5.0 mi Calm Calm - N/A   Clear
5:15 AM 38.5 °F 38.3 °F 99% 30.05 in 7.0 mi Calm Calm - N/A   Clear
5:35 AM 38.7 °F 38.7 °F 100% 30.05 in 1.2 mi Calm Calm - N/A   Mist
5:55 AM 39.0 °F 38.8 °F 99% 30.05 in 0.2 mi Calm Calm - N/A Fog Fog
6:15 AM 39.0 °F 39.0 °F 100% 30.05 in 5.0 mi Calm Calm - N/A   Clear
6:35 AM 41.9 °F 41.7 °F 99% 30.05 in 7.0 mi Calm Calm - N/A   Clear
6:55 AM 44.2 °F 44.1 °F 99% 30.05 in 10.0 mi Calm Calm - N/A   Clear
7:15 AM 46.8 °F 46.6 °F 99% 30.05 in 4.0 mi Calm Calm - N/A   Clear
7:35 AM 50.0 °F 49.8 °F 99% 30.05 in 10.0 mi Calm Calm - N/A   Clear
7:55 AM 52.9 °F 52.7 °F 99% 30.05 in 10.0 mi Calm Calm - N/A   Clear
8:15 AM 55.8 °F 52.5 °F 89% 30.06 in 10.0 mi Calm Calm - N/A   Mostly Cloudy
8:35 AM 56.7 °F 52.7 °F 87% 30.05 in 10.0 mi Calm Calm - N/A   Overcast
8:55 AM 58.1 °F 53.4 °F 84% 30.06 in 10.0 mi Calm Calm - N/A   Overcast
9:15 AM 59.0 °F 53.2 °F 81% 30.06 in 10.0 mi Calm Calm - N/A   Overcast
9:35 AM 60.1 °F 51.6 °F 74% 30.06 in 10.0 mi South 3.5 mph - N/A   Overcast
9:55 AM 60.8 °F 50.7 °F 69% 30.07 in 10.0 mi SW 3.5 mph - N/A   Overcast
10:15 AM 61.9 °F 51.6 °F 69% 30.07 in 10.0 mi Calm Calm - N/A   Overcast
10:35 AM 63.9 °F 52.2 °F 66% 30.07 in 10.0 mi SSW 6.9 mph - N/A   Overcast
10:55 AM 65.7 °F 51.1 °F 59% 30.07 in 10.0 mi SW 4.6 mph - N/A   Overcast
11:15 AM 65.3 °F 50.7 °F 59% 30.06 in 10.0 mi West 5.8 mph - N/A   Overcast
11:35 AM 66.4 °F 50.0 °F 56% 30.06 in 10.0 mi SW 5.8 mph - N/A   Overcast
11:55 AM 67.1 °F 50.2 °F 55% 30.05 in 10.0 mi SW 8.1 mph - N/A   Overcast
12:15 PM 67.3 °F 50.0 °F 54% 30.05 in 10.0 mi WSW 6.9 mph - N/A   Overcast
12:35 PM 70.0 °F 50.5 °F 50% 30.04 in 10.0 mi WSW 4.6 mph - N/A   Overcast
12:55 PM 71.1 °F 48.0 °F 44% 30.04 in 10.0 mi West 10.4 mph 16.1 mph N/A   Mostly Cloudy
1:15 PM 68.5 °F 48.6 °F 49% 30.05 in 10.0 mi WSW 5.8 mph - N/A   Overcast
1:35 PM 69.1 °F 49.5 °F 50% 30.04 in 10.0 mi West 8.1 mph - N/A   Overcast
1:55 PM 70.2 °F 49.6 °F 48% 30.04 in 10.0 mi West 6.9 mph - N/A   Overcast
2:15 PM 69.4 °F 49.1 °F 48% 30.04 in 10.0 mi WSW 8.1 mph 16.1 mph N/A   Overcast
2:35 PM 69.8 °F 50.2 °F 50% 30.03 in 10.0 mi West 5.8 mph - N/A   Overcast
2:55 PM 70.0 °F 50.4 °F 50% 30.03 in 10.0 mi WSW 6.9 mph - N/A   Mostly Cloudy
3:15 PM 62.6 °F 56.8 °F 81% 30.04 in 7.0 mi NW 5.8 mph - N/A Rain Light Rain
3:35 PM 65.5 °F 57.6 °F 76% 30.03 in 10.0 mi Calm Calm - N/A   Mostly Cloudy
3:55 PM 67.6 °F 56.8 °F 68% 30.03 in 10.0 mi NW 6.9 mph - N/A   Mostly Cloudy
4:15 PM 65.7 °F 56.5 °F 72% 30.03 in 10.0 mi NNW 8.1 mph - N/A   Overcast
4:35 PM 63.5 °F 56.1 °F 77% 30.02 in 10.0 mi North 5.8 mph - N/A   Light Drizzle
4:55 PM 63.5 °F 56.3 °F 77% 30.03 in 10.0 mi West 4.6 mph - N/A   Overcast
5:15 PM 64.2 °F 55.2 °F 73% 30.02 in 10.0 mi WNW 3.5 mph - N/A   Overcast
5:35 PM 64.4 °F 55.8 °F 73% 30.03 in 10.0 mi WNW 3.5 mph - N/A   Overcast
5:55 PM 63.7 °F 57.0 °F 79% 30.03 in 10.0 mi NNW 4.6 mph - N/A   Overcast
6:15 PM 63.0 °F 57.0 °F 81% 30.03 in 10.0 mi NNW 4.6 mph - N/A   Overcast
6:35 PM 61.9 °F 57.6 °F 86% 30.03 in 10.0 mi Calm Calm - N/A   Overcast
6:55 PM 61.3 °F 57.2 °F 86% 30.03 in 10.0 mi Calm Calm - N/A   Overcast
7:15 PM 61.3 °F 57.6 °F 87% 30.02 in 10.0 mi Calm Calm - N/A   Overcast
7:35 PM 61.0 °F 57.6 °F 88% 30.03 in 10.0 mi Calm Calm - N/A Rain Light Rain
7:55 PM 60.8 °F 58.1 °F 91% 30.03 in 10.0 mi Calm Calm - N/A   Overcast
8:15 PM 60.4 °F 58.1 °F 92% 30.03 in 10.0 mi Calm Calm - N/A   Overcast
8:35 PM 60.1 °F 57.6 °F 91% 30.02 in 10.0 mi Calm Calm - N/A Rain Light Rain
8:55 PM 58.8 °F 57.2 °F 94% 30.02 in 10.0 mi Calm Calm - N/A   Overcast
9:15 PM 58.1 °F 56.7 °F 95% 30.02 in 10.0 mi Calm Calm - N/A   Overcast
9:35 PM 57.4 °F 56.5 °F 97% 30.02 in 10.0 mi Calm Calm - N/A   Mostly Cloudy
9:55 PM 55.9 °F 55.2 °F 97% 30.01 in 4.0 mi Calm Calm - N/A   Mostly Cloudy
10:15 PM 54.9 °F 54.1 °F 97% 30.01 in 5.0 mi Calm Calm - N/A   Scattered Clouds
10:35 PM 54.3 °F 53.8 °F 98% 30.01 in 7.0 mi South 3.5 mph - N/A   Clear
10:55 PM 53.1 °F 52.3 °F 97% 30.01 in 1.5 mi Calm Calm - N/A   Mist
11:15 PM 51.6 °F 51.1 °F 98% 30.00 in 0.5 mi Calm Calm - N/A Fog Fog
11:35 PM 51.1 °F 50.7 °F 99% 30.00 in 0.8 mi Calm Calm - N/A   Mist
11:55 PM 50.2 °F 50.0 °F 99% 30.00 in 3.0 mi Calm Calm - N/A   Scattered Clouds